[[{"header":{"parameterUnit":"m.s-1","parameterCategory":1,"la1":30.2991,"la2":30.254,"lo1":-89.0895,"lo2":-89.0444,"dy":0.0017,"dx":0.0017,"nx":28,"ny":28,"refTime":"2024-08-27T03:00:00:Z","depth":0,"parameterNumber":2,"parameterNumberName":"U-component_of_WINDS"},"data":[0,0,0,0,0,0,0,0,0,0,0,0,0,0,0,0,0,0,0,0,0,0,0,0,0,0,0,0,0,0,0,0,0,0,0,0,0,0,0,0,0,0,0,0,0,0,0,0,0,0,0,0,0,0,0,0,0,0,-1.7859,-1.7858,0,-1.7829,-1.7829,-1.7828,-1.7754,-1.7752,-1.7751,-1.7749,-1.7722,-1.7722,-1.7723,0,0,0,0,0,0,0,0,0,0,0,0,0,-1.7857,-1.7857,-1.7859,-1.7858,-1.7858,-1.7829,-1.7829,-1.7828,-1.7754,-1.7752,-1.775,-1.7749,-1.7721,-1.7722,-1.7723,0,0,0,0,0,0,0,0,0,0,0,0,0,-1.7846,-1.7857,-1.7859,-1.7818,-1.7813,-1.7829,-1.7829,-1.7828,-1.7755,-1.7752,-1.775,-1.7748,-1.7721,-1.7722,-1.7723,-1.7777,0,0,-1.7726,-1.7727,0,0,0,0,0,0,0,0,-1.7846,-1.7846,-1.7824,-1.782,-1.7816,-1.7793,-1.7818,-1.7811,-1.7755,-1.7777,-1.7749,-1.7747,-1.7747,-1.7746,-1.7746,-1.7776,-1.7775,-1.7727,-1.7727,-1.7728,-1.7728,0,0,0,0,0,0,0,-1.7847,-1.7847,-1.7847,-1.7824,-1.7819,-1.7802,-1.7798,-1.7816,-1.7776,-1.7775,-1.777,-1.7767,-1.7745,-1.7745,-1.7745,-1.7774,-1.7727,-1.7728,-1.7728,-1.7729,-1.7852,-1.7855,0,0,0,0,0,0,-1.7853,-1.7848,-1.7848,-1.7846,-1.7826,-1.7804,-1.78,-1.7803,-1.7775,-1.7769,-1.7769,-1.7764,-1.7744,-1.7743,-1.7743,-1.7807,-1.7728,-1.7729,-1.7729,-1.785,-1.7853,-1.7856,0,0,0,0,0,0,-1.7854,-1.7854,-1.7849,-1.7846,-1.7844,-1.7807,-1.7811,-1.7803,-1.7803,-1.7771,-1.7764,-1.7776,-1.7742,-1.7742,-1.777,-1.7805,-1.7729,-1.773,-1.7847,-1.7851,-1.7854,-1.7935,0,0,0,0,0,0,-1.7854,-1.7855,-1.7873,-1.7846,-1.7844,-1.7875,-1.7813,-1.7804,-1.7805,-1.7798,-1.7776,-1.777,-1.774,-1.7769,-1.7771,-1.7805,-1.7731,-1.7843,-1.7848,-1.7853,-1.7929,-1.7941,-1.7951,0,0,0,0,0,-1.7854,-1.7896,-1.7874,-1.7875,-1.7866,-1.7877,-1.7876,-1.784,-1.7808,-1.7828,-1.7808,-1.7771,-1.7801,-1.7773,-1.7774,-1.781,-1.7841,-1.7847,-1.7853,-1.7924,-1.7939,-1.7951,0,0,0,0,0,0,-1.7928,-1.7892,-1.7867,-1.7902,-1.7893,-1.7864,-1.7887,-1.7856,-1.7857,-1.785,-1.7807,-1.7803,-1.7838,-1.7827,-1.7795,-1.7863,-1.7815,-1.7822,-1.7869,-1.7883,-1.7894,-1.7896,-1.7732,0,0,0,0,0,-1.7948,-1.7959,-1.7927,-1.7961,-1.7958,-1.7924,-1.7927,-1.7901,-1.7891,-1.7887,-1.7868,-1.7861,-1.7869,-1.7875,-1.7881,-1.7927,-1.7923,-1.7953,-1.7964,-1.7974,-1.798,-1.8007,-1.8021,-1.7875,-1.7875,-1.7875,0,0,-1.799,-1.7972,-1.7981,-1.7976,-1.7966,-1.798,-1.7921,-1.7937,-1.7948,-1.7889,-1.7915,-1.7903,-1.7891,-1.793,-1.7946,-1.7922,-1.802,-1.7981,-1.7989,-1.799,-1.8015,-1.8029,-1.8041,-1.7879,-1.7878,-1.7878,0,0,-1.8074,-1.806,-1.8089,-1.8081,-1.8067,-1.8045,-1.8052,-1.8029,-1.8018,-1.8044,-1.8001,-1.8014,-1.8028,-1.8023,-1.8023,-1.811,-1.8077,-1.8114,-1.8172,-1.82,-1.8211,-1.8221,-1.8255,-1.8267,-1.812,-1.812,-1.812,0,-1.8128,-1.8146,-1.8107,-1.8127,-1.8128,-1.8076,-1.8106,-1.8101,-1.809,-1.8092,-1.8065,-1.8085,-1.8073,-1.8112,-1.8134,-1.8134,-1.8143,-1.8115,-1.8212,-1.8222,-1.8231,-1.8263,-1.8275,-1.8125,-1.8124,-1.8124,-1.8123,0,-1.8214,-1.8228,-1.8253,-1.8244,-1.8247,-1.8272,-1.824,-1.8249,-1.8224,-1.8205,-1.8235,-1.822,-1.8223,-1.8231,-1.8206,-1.8267,-1.8253,-1.822,-1.8171,-1.825,-1.8279,-1.8291,-1.8131,-1.813,-1.8128,-1.8127,0,0,-1.8341,-1.8314,-1.8323,-1.8321,-1.8304,-1.8314,-1.8339,-1.8342,-1.8352,-1.8347,-1.8369,-1.8384,-1.8355,-1.8354,-1.8329,-1.8353,-1.8427,-1.8318,-1.8317,-1.834,-1.8498,-1.8523,-1.8538,-1.8406,-1.8408,-1.841,-1.8499,0,-1.8421,-1.846,-1.8428,-1.8474,-1.8488,-1.8441,-1.8463,-1.8457,-1.8442,-1.8453,-1.8437,-1.8449,-1.8408,-1.8408,-1.843,-1.8414,-1.8459,-1.8407,-1.8427,-1.8428,-1.8432,-1.8552,-1.8578,-1.8663,-1.851,-1.8512,-1.8513,0,-1.8519,-1.852,-1.8567,-1.8551,-1.8555,-1.8575,-1.8578,-1.8589,-1.8582,-1.857,-1.8572,-1.8542,-1.8568,-1.8521,-1.8558,-1.8524,-1.8531,-1.8525,-1.8527,-1.8528,-1.8476,-1.8558,-1.8689,-1.8703,-1.8531,-1.8529,-1.8528,0,-1.8609,-1.8622,-1.8653,-1.8652,-1.8633,-1.8649,-1.8642,-1.8633,-1.8639,-1.8642,-1.8646,-1.8652,-1.8656,-1.8663,-1.8637,-1.8605,-1.8679,-1.8629,-1.8671,-1.8672,-1.8688,-1.8687,-1.8824,-1.8692,-1.8692,-1.8692,-1.8691,0,-1.8702,-1.8733,-1.8693,-1.8712,-1.8747,-1.8713,-1.8749,-1.8737,-1.8731,-1.8749,-1.871,-1.8728,-1.8692,-1.8707,-1.8687,-1.8723,-1.8724,-1.8717,-1.8711,-1.872,-1.8722,-1.8724,-1.8718,-1.8695,-1.8694,-1.8693,-1.8693,0,-1.8808,-1.8782,-1.8813,-1.8794,-1.879,-1.8817,-1.8802,-1.882,-1.8804,-1.8827,-1.8831,-1.8806,-1.8822,-1.8797,-1.8811,-1.8798,-1.8847,-1.8832,-1.8849,-1.8845,-1.889,-1.8886,-1.9033,-1.9052,-1.8907,-1.8909,-1.891,0,-1.8869,-1.8892,-1.8876,-1.8885,-1.8881,-1.8896,-1.8902,-1.887,-1.8878,-1.8875,-1.8895,-1.8908,-1.8917,-1.8947,-1.8931,-1.8942,-1.8928,-1.8979,-1.8929,-1.8939,-1.8931,-1.893,-1.8933,-1.8989,-1.899,-1.8992,-1.8993,0,-1.8981,-1.8968,-1.8977,-1.8984,-1.8993,-1.8996,-1.8997,-1.9007,-1.8974,-1.8986,-1.9003,-1.901,-1.9025,-1.904,-1.9048,-1.9044,-1.9014,-1.9009,-1.902,-1.903,-1.9039,-1.9037,-1.8878,-1.9006,-1.9004,-1.9003,-1.9003,-1.9002,-1.9067,-1.9087,-1.908,-1.9093,-1.9091,-1.9094,-1.9111,-1.9098,-1.9111,-1.912,-1.9101,-1.9124,-1.9121,-1.9129,-1.9128,-1.9147,-1.9125,-1.914,-1.9144,-1.9148,-1.9156,-1.9037,-1.9148,-1.9148,-1.9147,-1.9147,-1.9147,0,-1.9179,-1.9173,-1.9185,-1.9189,-1.92,-1.9171,-1.9172,-1.9184,-1.9204,-1.9203,-1.9214,-1.9235,-1.9251,-1.9238,-1.9251,-1.9269,-1.9256,-1.9274,-1.9272,-1.9272,-1.9174,-1.9164,-1.9284,-1.9284,-1.9284,-1.9284,-1.9284,-1.9284,-1.9238,-1.9271,-1.9258,-1.9291,-1.9285,-1.9306,-1.931,-1.9313,-1.9313,-1.9339,-1.9351,-1.9343,-1.9338,-1.9352,-1.9366,-1.9362,-1.937,-1.9392,-1.9384,-1.9292,-1.9279,-1.9266,-1.9256,-1.9394,-1.9394,-1.9481,-1.9482,-1.9482]},{"header":{"parameterUnit":"m.s-1","parameterCategory":1,"la1":30.2991,"la2":30.254,"lo1":-89.0895,"lo2":-89.0444,"dy":0.0017,"dx":0.0017,"nx":28,"ny":28,"refTime":"2024-08-27T03:00:00:Z","depth":0,"parameterNumber":3,"parameterNumberName":"V-component_of_WINDS"},"data":[0,0,0,0,0,0,0,0,0,0,0,0,0,0,0,0,0,0,0,0,0,0,0,0,0,0,0,0,0,0,0,0,0,0,0,0,0,0,0,0,0,0,0,0,0,0,0,0,0,0,0,0,0,0,0,0,0,0,3.6845,3.6845,0,3.6873,3.6873,3.6873,3.6916,3.6916,3.6917,3.6918,3.6944,3.6944,3.6944,0,0,0,0,0,0,0,0,0,0,0,0,0,3.6826,3.6826,3.6845,3.6845,3.6845,3.6873,3.6873,3.6873,3.6916,3.6916,3.6917,3.6918,3.6944,3.6944,3.6944,0,0,0,0,0,0,0,0,0,0,0,0,0,3.6842,3.6826,3.6845,3.687,3.6872,3.6872,3.6873,3.6873,3.6915,3.6916,3.6918,3.6919,3.6944,3.6944,3.6944,3.692,0,0,3.6943,3.6943,0,0,0,0,0,0,0,0,3.6841,3.6842,3.6866,3.6868,3.6871,3.6892,3.6876,3.6889,3.6915,3.6899,3.6918,3.6919,3.6925,3.6927,3.6929,3.6922,3.6923,3.6943,3.6943,3.6943,3.6943,0,0,0,0,0,0,0,3.6839,3.6841,3.6856,3.6866,3.6869,3.6879,3.6882,3.6878,3.6905,3.69,3.6904,3.6906,3.6927,3.6929,3.693,3.6923,3.6943,3.6943,3.6943,3.6943,3.6897,3.6896,0,0,0,0,0,0,3.6835,3.684,3.6855,3.6856,3.6858,3.6878,3.6882,3.6884,3.6905,3.691,3.6905,3.6908,3.6929,3.693,3.6931,3.6905,3.6943,3.6943,3.6943,3.6898,3.6897,3.6896,0,0,0,0,0,0,3.6834,3.6836,3.6854,3.6849,3.6852,3.6877,3.6879,3.6884,3.6886,3.6909,3.6914,3.6903,3.693,3.6931,3.6923,3.6906,3.6943,3.6943,3.69,3.6898,3.6896,3.6852,0,0,0,0,0,0,3.6834,3.6835,3.6827,3.6849,3.6852,3.6845,3.6878,3.6884,3.6887,3.6891,3.6908,3.6912,3.6931,3.6923,3.6923,3.6907,3.6943,3.6901,3.6899,3.6897,3.6855,3.6849,3.6844,0,0,0,0,0,3.6833,3.6813,3.6827,3.6828,3.6843,3.6844,3.6846,3.6868,3.6885,3.6877,3.6892,3.6912,3.6909,3.6922,3.6922,3.6906,3.6902,3.69,3.6897,3.6857,3.685,3.6844,0,0,0,0,0,0,3.6788,3.6816,3.6832,3.6818,3.6829,3.6851,3.6841,3.686,3.6865,3.6868,3.6895,3.6899,3.6886,3.6896,3.691,3.6884,3.6909,3.6906,3.6878,3.6871,3.6866,3.6863,3.6943,0,0,0,0,0,3.6777,3.6776,3.6801,3.6787,3.6791,3.6815,3.6817,3.6833,3.6845,3.6849,3.6863,3.6872,3.6873,3.6873,3.6876,3.6857,3.6861,3.6847,3.6841,3.6836,3.6832,3.6822,3.6816,3.6887,3.6887,3.6887,0,0,3.6752,3.6768,3.6766,3.6778,3.6788,3.6786,3.6818,3.6815,3.6813,3.6848,3.684,3.6851,3.6864,3.685,3.6844,3.6857,3.6814,3.6833,3.6829,3.6828,3.6819,3.6812,3.6806,3.6885,3.6885,3.6886,0,0,3.6707,3.672,3.6709,3.6719,3.6734,3.675,3.6748,3.6768,3.6777,3.677,3.6796,3.6795,3.6796,3.6804,3.6808,3.6767,3.6785,3.6767,3.6736,3.6726,3.6721,3.6716,3.6699,3.6693,3.6764,3.6764,3.6764,0,3.6675,3.6674,3.6701,3.6696,3.67,3.6733,3.6722,3.673,3.6744,3.6746,3.6761,3.6763,3.6774,3.6762,3.6752,3.6755,3.6752,3.6764,3.672,3.6715,3.6711,3.6695,3.6689,3.6762,3.6762,3.6762,3.6762,0,3.6633,3.6632,3.6621,3.6636,3.6639,3.6631,3.6656,3.6656,3.6673,3.6687,3.668,3.6694,3.67,3.6699,3.6715,3.6689,3.6696,3.6715,3.6739,3.6701,3.6687,3.6681,3.6758,3.6759,3.676,3.676,0,0,3.6558,3.6589,3.6584,3.6591,3.6611,3.6609,3.6603,3.661,3.6608,3.6618,3.6612,3.6613,3.6631,3.6635,3.6653,3.6644,3.6609,3.6664,3.6665,3.6652,3.658,3.6563,3.6556,3.6623,3.6622,3.6621,3.6578,0,3.6515,3.6506,3.653,3.6514,3.6513,3.6545,3.654,3.655,3.6564,3.6565,3.658,3.658,3.6604,3.6607,3.66,3.6615,3.6595,3.6619,3.6616,3.6615,3.6609,3.6549,3.6532,3.6491,3.6573,3.6572,3.6571,0,3.6463,3.6471,3.6455,3.6476,3.6476,3.647,3.6478,3.6479,3.6492,3.6503,3.6509,3.653,3.6524,3.6549,3.6541,3.6556,3.6557,3.6564,3.6563,3.6562,3.6589,3.6544,3.6478,3.6471,3.6563,3.6564,3.6565,0,3.6407,3.6414,3.6405,3.641,3.6435,3.643,3.644,3.6455,3.6457,3.6464,3.6466,3.6472,3.6474,3.6478,3.65,3.6517,3.6488,3.6516,3.6495,3.6494,3.6485,3.6485,3.6416,3.649,3.649,3.649,3.649,0,3.6355,3.6343,3.638,3.6374,3.6362,3.6391,3.6378,3.6392,3.6405,3.6401,3.643,3.6426,3.6457,3.6456,3.6473,3.6462,3.6464,3.6471,3.6475,3.6467,3.6466,3.6466,3.6468,3.6488,3.6489,3.6489,3.6489,0,3.6289,3.6313,3.6306,3.6331,3.6337,3.6326,3.6347,3.6343,3.636,3.6355,3.6355,3.6381,3.6382,3.6405,3.641,3.6422,3.6403,3.6414,3.6398,3.6401,3.6378,3.6379,3.6304,3.6295,3.6377,3.6376,3.6375,0,3.6252,3.6244,3.6269,3.627,3.6279,3.6279,3.6282,3.6311,3.6312,3.6327,3.632,3.6324,3.6328,3.6327,3.6345,3.6349,3.6359,3.6333,3.636,3.6351,3.6356,3.6355,3.6353,3.6326,3.6325,3.6324,3.6324,0,3.6185,3.6198,3.6202,3.621,3.6213,3.622,3.623,3.6228,3.626,3.626,3.6262,3.6265,3.6271,3.6273,3.6281,3.629,3.6311,3.6316,3.6311,3.63,3.6291,3.6294,3.638,3.6316,3.6317,3.6318,3.6318,3.6318,3.6131,3.6125,3.6142,3.6145,3.6156,3.6164,3.616,3.6178,3.618,3.6187,3.6205,3.6203,3.6217,3.623,3.6237,3.6236,3.6249,3.6242,3.624,3.6237,3.6232,3.6294,3.6238,3.6238,3.6238,3.6238,3.6238,0,3.6063,3.6076,3.6079,3.6091,3.6094,3.6116,3.6128,3.6128,3.6127,3.6138,3.6142,3.6144,3.6146,3.6166,3.617,3.6165,3.6175,3.6165,3.6164,3.6166,3.6221,3.6224,3.6157,3.6157,3.6157,3.6157,3.6157,3.6157,3.6027,3.6019,3.6034,3.603,3.6043,3.6043,3.6047,3.6055,3.6064,3.6065,3.6068,3.6081,3.6096,3.6102,3.6105,3.6111,3.611,3.6096,3.6104,3.6155,3.6162,3.617,3.6172,3.6096,3.6096,3.605,3.6049,3.6049]}]]